EW7199 Weather Reports


time (UTC)temp
F
wind
direction
speed
knots
gust
knots
rain 1hr
in
rain 24hr
in
rain mn
in
humidity
%
barometer
mb
20260503225416 59 67 1.7 2.6 0.00 0.00 0.00 71 1018.4
20260503224917 59 81 0.9 2.6 0.00 0.00 0.00 71 1018.4
20260503224419 59 72 0.9 2.6 0.00 0.00 0.00 71 1018.4
20260503223917 59 72 1.7 2.6 0.00 0.00 0.00 71 1018.4
20260503223416 59 79 0.9 2.6 0.00 0.00 0.00 71 1018.4
20260503222918 59 84 0.9 2.6 0.00 0.00 0.00 71 1018.4
20260503222416 60 78 0.9 2.6 0.00 0.00 0.00 71 1018.5
20260503221920 60 75 0.0 0.0 0.00 0.00 0.00 71 1018.5
20260503220917 60 81 1.7 2.6 0.00 0.00 0.00 71 1018.4
20260503220417 60 80 2.6 5.2 0.00 0.00 0.00 71 1018.4
20260503215917 61 88 1.7 2.6 0.00 0.00 0.00 71 1018.4
20260503214917 62 113 0.9 2.6 0.00 0.00 0.00 70 1018.4
20260503214417 63 120 0.9 2.6 0.00 0.00 0.00 70 1018.4
20260503213917 64 189 0.0 1.7 0.00 0.00 0.00 70 1018.3
20260503213417 64 258 0.9 1.7 0.00 0.00 0.00 70 1018.3
20260503212918 64 275 0.0 0.9 0.00 0.00 0.00 71 1018.3
20260503212417 64 278 0.9 1.7 0.00 0.00 0.00 71 1018.3
20260503211917 64 278 0.0 1.7 0.00 0.00 0.00 72 1018.3
20260503211417 64 278 0.9 1.7 0.00 0.00 0.00 73 1018.3
20260503210917 64 279 0.9 1.7 0.00 0.00 0.00 73 1018.3
20260503210417 64 260 0.9 2.6 0.00 0.00 0.00 73 1018.2
20260503205917 64 256 1.7 2.6 0.00 0.00 0.00 72 1018.3
20260503204418 64 278 0.9 1.7 0.00 0.00 0.00 73 1018.3
20260503203916 64 252 1.7 2.6 0.00 0.00 0.00 72 1018.2
20260503203417 64 299 1.7 2.6 0.00 0.00 0.00 70 1018.2
20260503202917 64 282 0.9 1.7 0.00 0.00 0.00 68 1018.2
20260503202418 64 212 0.9 2.6 0.00 0.00 0.00 68 1018.1
20260503201921 64 208 0.9 2.6 0.00 0.00 0.00 68 1018.1
20260503201417 64 215 1.7 2.6 0.00 0.00 0.00 68 1018.0
20260503200916 64 229 1.7 1.7 0.00 0.00 0.00 68 1018.1
20260503200417 64 228 1.7 2.6 0.00 0.00 0.00 67 1018.1
20260503195917 64 230 1.7 2.6 0.00 0.00 0.00 67 1018.0
20260503195417 64 225 1.7 2.6 0.00 0.00 0.00 68 1018.0
20260503194916 64 205 1.7 2.6 0.00 0.00 0.00 68 1018.0
20260503194418 64 227 1.7 2.6 0.00 0.00 0.00 68 1017.9
20260503193916 64 213 1.7 2.6 0.00 0.00 0.00 69 1018.0
20260503193417 64 213 1.7 2.6 0.00 0.00 0.00 69 1017.9
20260503192917 64 219 1.7 2.6 0.00 0.00 0.00 69 1017.9
20260503192417 64 232 1.7 2.6 0.00 0.00 0.00 69 1017.8
20260503191916 64 230 1.7 2.6 0.00 0.00 0.00 68 1017.9
20260503191417 64 221 1.7 2.6 0.00 0.00 0.00 67 1017.7
20260503185917 64 222 1.7 2.6 0.00 0.00 0.00 65 1017.7
20260503185417 65 221 1.7 2.6 0.00 0.00 0.00 66 1017.6
20260503184916 65 214 1.7 2.6 0.00 0.00 0.00 66 1017.6
20260503183918 65 210 0.9 2.6 0.00 0.00 0.00 67 1017.5
20260503183417 65 219 1.7 2.6 0.00 0.00 0.00 67 1017.5
20260503182916 65 215 2.6 5.2 0.00 0.00 0.00 67 1017.5
20260503182417 65 219 2.6 2.6 0.00 0.00 0.00 66 1017.4
20260503181916 66 227 1.7 2.6 0.00 0.00 0.00 63 1017.4
20260503180917 70 225 1.7 2.6 0.00 0.00 0.00 49 1017.2
20260503180416 71 216 0.9 2.6 0.00 0.00 0.00 35 1017.1
20260503175917 71 48 0.0 0.0 0.00 0.00 0.00 34 1016.9
20260503173917 71 58 0.9 2.6 0.00 0.00 0.00 34 1016.9
20260503173417 72 30 1.7 2.6 0.00 0.00 0.00 34 1016.9
20260503172917 72 50 0.9 2.6 0.00 0.00 0.00 34 1016.9
20260503172417 72 108 0.9 2.6 0.00 0.00 0.00 34 1016.9
20260503170917 73 65 0.9 2.6 0.00 0.00 0.00 33 1016.9
20260503170417 73 308 0.9 2.6 0.00 0.00 0.00 33 1016.8
20260503150916 73 318 1.7 4.3 0.00 0.00 0.00 34 1016.7
20260503150416 73 357 1.7 2.6 0.00 0.00 0.00 34 1016.7
20260503131417 72 327 1.7 2.6 0.00 0.00 0.00 38 1017.2
20260503130916 72 18 1.7 7.0 0.00 0.00 0.00 37 1017.2
20260503110417 72 305 2.6 13.9 0.00 0.00 0.00 35 1017.4
20260503090417 71 296 3.5 6.1 0.00 0.00 0.00 33 1017.7
20260503081416 69 301 2.6 8.7 0.00 0.00 0.00 36 1017.7
20260503080916 69 296 4.3 6.1 0.00 0.00 0.00 37 1017.8
20260503080416 69 298 3.5 6.1 0.00 0.00 0.00 38 1017.8
20260503072916 68 309 2.6 4.3 0.00 0.00 0.00 42 1017.9
20260503072420 67 250 2.6 2.6 0.00 0.00 0.00 42 1017.9
20260503071417 67 306 2.6 4.3 0.00 0.00 0.00 43 1017.9
20260503070916 67 308 0.9 2.6 0.00 0.00 0.00 43 1017.8
20260503054915 59 265 1.7 2.6 0.00 0.00 0.00 60 1018.0
20260503054417 59 264 2.6 7.0 0.00 0.00 0.00 59 1018.0
20260503053916 59 269 2.6 2.6 0.00 0.00 0.00 59 1018.0
20260503053416 59 254 2.6 2.6 0.00 0.00 0.00 62 1018.0
20260503052916 58 250 2.6 2.6 0.00 0.00 0.00 61 1017.9
20260503052416 58 256 1.7 2.6 0.00 0.00 0.00 62 1017.9
20260503051416 57 262 2.6 5.2 0.00 0.00 0.00 62 1017.9
20260503050916 57 244 2.6 2.6 0.00 0.00 0.00 63 1017.9
20260503045915 57 263 1.7 2.6 0.00 0.00 0.00 63 1017.9
20260503045417 57 261 2.6 2.6 0.00 0.00 0.00 64 1017.8
20260503044916 57 266 1.7 2.6 0.00 0.00 0.00 64 1017.8
20260503044421 57 266 2.6 2.6 0.00 0.00 0.00 64 1017.9
20260503043416 57 262 2.6 2.6 0.00 0.00 0.00 63 1018.0
20260503042415 57 269 2.6 2.6 0.00 0.00 0.00 63 1017.9
20260503041915 57 268 2.6 2.6 0.00 0.00 0.00 62 1017.9
20260503041416 57 255 1.7 2.6 0.00 0.00 0.00 61 1017.9
20260503040915 57 269 2.6 2.6 0.00 0.00 0.00 61 1017.9
20260503040415 57 264 1.7 5.2 0.00 0.00 0.00 61 1017.9
20260503035916 57 256 1.7 2.6 0.00 0.00 0.00 60 1017.9
20260503035415 57 261 2.6 2.6 0.00 0.00 0.00 60 1017.9
20260503033915 57 267 1.7 2.6 0.00 0.00 0.00 59 1017.9
20260503033416 57 270 2.6 2.6 0.00 0.00 0.00 60 1017.9
20260503032915 57 266 2.6 2.6 0.00 0.00 0.00 60 1017.9
20260503031915 57 264 2.6 2.6 0.00 0.00 0.00 59 1017.9
20260503031415 57 260 2.6 2.6 0.00 0.00 0.00 57 1017.9
20260503030915 57 268 2.6 2.6 0.00 0.00 0.00 57 1018.0
20260503030415 57 263 2.6 4.3 0.00 0.00 0.00 58 1018.0
20260503025916 57 267 2.6 2.6 0.00 0.00 0.00 58 1018.0
20260503025419 57 279 1.7 2.6 0.00 0.00 0.00 58 1018.0
20260503024916 57 263 1.7 2.6 0.00 0.00 0.00 58 1018.0
20260503024426 57 258 2.6 2.6 0.00 0.00 0.00 58 1018.0
20260503023916 57 258 1.7 5.2 0.00 0.00 0.00 59 1018.1
20260503022916 57 254 1.7 2.6 0.00 0.00 0.00 58 1018.1
20260503022418 57 258 2.6 4.3 0.00 0.00 0.00 58 1018.2
20260503021915 57 263 2.6 2.6 0.00 0.00 0.00 58 1018.2
20260503021415 57 268 2.6 2.6 0.00 0.00 0.00 59 1018.3
20260503020915 56 270 1.7 2.6 0.00 0.00 0.00 59 1018.4
20260503020417 56 268 1.7 2.6 0.00 0.00 0.00 60 1018.4
20260503015418 56 258 1.7 2.6 0.00 0.00 0.00 58 1018.6
20260503014916 56 246 2.6 2.6 0.00 0.00 0.00 58 1018.6
20260503014429 56 267 1.7 5.2 0.00 0.00 0.00 57 1018.6
20260503013916 56 264 1.7 2.6 0.00 0.00 0.00 57 1018.7
20260503012916 56 267 1.7 2.6 0.00 0.00 0.00 57 1018.7
20260503011916 56 271 1.7 2.6 0.00 0.00 0.00 57 1018.8
20260503011417 56 246 0.9 2.6 0.00 0.00 0.00 57 1018.8
20260503010915 56 283 1.7 2.6 0.00 0.00 0.00 58 1018.9
20260503005915 56 256 1.7 2.6 0.00 0.00 0.00 58 1019.0
20260503005416 56 253 1.7 2.6 0.00 0.00 0.00 58 1019.0
20260503004915 56 257 1.7 2.6 0.00 0.00 0.00 58 1019.1
20260503004415 56 279 1.7 2.6 0.00 0.00 0.00 57 1019.1
20260503003418 57 260 0.9 2.6 0.00 0.00 0.00 57 1019.1
20260503001915 57 280 1.7 2.6 0.00 0.00 0.00 56 1019.1
20260503001415 57 289 0.9 2.6 0.00 0.00 0.00 57 1019.1
20260503000915 57 280 1.7 4.3 0.00 0.00 0.00 57 1019.2
20260503000415 57 245 1.7 2.6 0.00 0.00 0.00 58 1019.2
20260502235916 57 289 1.7 2.6 0.00 0.00 0.00 58 1019.3
20260502235422 57 275 1.7 5.2 0.00 0.00 0.00 60 1019.3
20260502234915 58 266 1.7 2.6 0.00 0.00 0.00 60 1019.4
20260502234417 58 266 1.7 5.2 0.00 0.00 0.00 60 1019.4
20260502233915 58 270 2.6 5.2 0.00 0.01 0.00 59 1019.5
20260502233415 58 270 2.6 6.1 0.00 0.01 0.00 58 1019.6
20260502232915 58 272 2.6 2.6 0.00 0.01 0.00 57 1019.6
20260502232418 58 276 2.6 5.2 0.00 0.01 0.00 58 1019.8
20260502231915 59 266 2.6 5.2 0.00 0.01 0.00 57 1019.8
20260502231415 59 267 2.6 4.3 0.00 0.01 0.00 59 1020.0
20260502230915 59 271 2.6 4.3 0.00 0.01 0.00 60 1020.1
20260502230415 59 257 1.7 5.2 0.00 0.01 0.00 63 1020.2
20260502225917 59 263 2.6 4.3 0.00 0.01 0.00 62 1020.3